Weather History for Hilton Head Island, SC

Change the Weather History Date:

Friday, November 16, 2012

  Actual Average Record
Temperature  
Mean Temperature 50 °F -  
Max Temperature 53 °F 69 °F 85 °F (1958)
Min Temperature 48 °F 46 °F 27 °F (1969)
Degree Days  
Heating Degree Days 14    
Moisture  
Dew Point 48 °F    
Average Humidity 90    
Maximum Humidity 100    
Minimum Humidity 77    
Precipitation  
Precipitation 0.00 in - - ()
Sea Level Pressure  
Sea Level Pressure 30.26 in    
Wind  
Wind Speed 10 mph (North)    
Max Wind Speed 13 mph    
Max Gust Speed 17 mph    
Visibility 8 miles    
Events      
Averages and records for this station are not official NWS values.
T = Trace of Precipitation, MM = Missing Value Source: NWS Daily Summary

Daily Weather History Graph

Daily Weather History Graph

Search for Another Location

Airport:

Trip Planner

Search our weather history database for the weather conditions in past years. The results will help you decide how hot, cold, wet, or windy it might be!

Date:

Astronomy

Nov. 16, 2012 Rise Set
Actual Time 6:53 AM EST 5:21 PM EST
Civil Twilight 6:27 AM EST 5:47 PM EST
Nautical Twilight 5:57 AM EST 6:17 PM EST
Astronomical Twilight 5:28 AM EST 6:46 PM EST
Moon 9:43 AM EST (11/16) 8:21 PM EST (11/16)
Length of Visible Light 11h 20m
Length of Day
10h 28m
Waxing Crescent, 11% of the Moon is Illuminated
Nov 16
Waxing Crescent
Nov 20
First Quarter
Nov 28
Full
Dec 6
Last Quarter
Dec 13
New

Hourly Weather History & Observations

Time (EST) Temp. Dew Point Humidity Pressure Visibility Wind Dir Wind Speed Gust Speed Precip Events Conditions
12:15 AM 48.2 °F 46.4 °F 93% 30.23 in 7.0 mi North 10.4 mph - 0.00 in   Overcast
12:35 AM 48.2 °F 46.4 °F 93% 30.23 in 7.0 mi North 8.1 mph - 0.00 in   Overcast
12:55 AM 48.2 °F 48.2 °F 100% 30.23 in 10.0 mi North 9.2 mph - 0.00 in   Overcast
1:15 AM 48.2 °F 48.2 °F 100% 30.23 in 5.0 mi North 9.2 mph - 0.00 in   Overcast
1:35 AM 48.2 °F 48.2 °F 100% 30.23 in 4.0 mi North 9.2 mph - 0.00 in   Overcast
1:55 AM 48.2 °F 48.2 °F 100% 30.23 in 2.0 mi North 10.4 mph - 0.00 in   Overcast
2:15 AM 48.2 °F 48.2 °F 100% 30.23 in 1.5 mi North 9.2 mph - 0.00 in   Overcast
2:35 AM 48.2 °F 48.2 °F 100% 30.23 in 3.0 mi North 9.2 mph - 0.00 in   Overcast
2:55 AM 48.2 °F 48.2 °F 100% 30.23 in 5.0 mi North 10.4 mph - 0.00 in   Overcast
3:15 AM 48.2 °F 48.2 °F 100% 30.23 in 7.0 mi North 10.4 mph - 0.00 in   Overcast
3:35 AM 48.2 °F 48.2 °F 100% 30.23 in 6.0 mi North 9.2 mph - 0.00 in   Overcast
3:55 AM 48.2 °F 48.2 °F 100% 30.23 in 5.0 mi North 8.1 mph - 0.00 in   Overcast
4:15 AM 48.2 °F 48.2 °F 100% 30.22 in 4.0 mi North 10.4 mph - 0.00 in   Overcast
4:35 AM 48.2 °F 48.2 °F 100% 30.22 in 6.0 mi North 11.5 mph - 0.00 in   Overcast
4:55 AM 48.2 °F 48.2 °F 100% 30.23 in 8.0 mi North 6.9 mph - 0.00 in   Overcast
5:15 AM 48.2 °F 48.2 °F 100% 30.23 in 8.0 mi North 6.9 mph - 0.00 in   Overcast
5:35 AM 48.2 °F 48.2 °F 100% 30.23 in 9.0 mi North 10.4 mph - 0.00 in   Overcast
6:50 AM 48.2 °F 46.4 °F 93% 30.24 in 10.0 mi North 11.5 mph - N/A   Overcast
7:50 AM 48.2 °F 46.4 °F 93% 30.26 in 10.0 mi North 11.5 mph - N/A   Mostly Cloudy
8:50 AM 50.0 °F 46.4 °F 87% 30.27 in 9.0 mi NNE 11.5 mph - N/A   Overcast
9:50 AM 50.0 °F 46.4 °F 87% 30.28 in 9.0 mi North 11.5 mph - N/A   Overcast
10:50 AM 51.8 °F 48.2 °F 88% 30.29 in 10.0 mi NNE 6.9 mph - N/A   Overcast
11:50 AM 51.8 °F 48.2 °F 88% 30.29 in 10.0 mi North 10.4 mph - N/A   Overcast
12:50 PM 53.6 °F 48.2 °F 82% 30.27 in 10.0 mi North 11.5 mph - N/A   Overcast
1:50 PM 53.6 °F 48.2 °F 82% 30.26 in 10.0 mi North 10.4 mph - N/A   Overcast
2:50 PM 51.8 °F 48.2 °F 88% 30.25 in 10.0 mi North 10.4 mph 17.3 mph N/A   Overcast
3:50 PM 53.6 °F 46.4 °F 77% 30.25 in 10.0 mi NNE 12.7 mph - N/A   Overcast
4:50 PM 53.6 °F 46.4 °F 77% 30.20 in 10.0 mi North 12.7 mph - N/A   Overcast
5:52 PM 53.6 °F 48.2 °F 82% 30.27 in 10.0 mi NNE 10.4 mph - N/A   Overcast
6:50 PM 53.6 °F 48.2 °F 82% 30.27 in 10.0 mi NNE 10.4 mph - N/A   Overcast
7:50 PM 51.8 °F 48.2 °F 88% 30.28 in 10.0 mi North 9.2 mph - N/A   Mostly Cloudy
8:15 PM 51.8 °F 48.2 °F 88% 30.28 in 10.0 mi North 8.1 mph - 0.00 in   Mostly Cloudy
8:50 PM 51.8 °F 48.2 °F 88% 30.28 in 10.0 mi North 8.1 mph - N/A   Clear
8:55 PM 51.8 °F 48.2 °F 88% 30.28 in 10.0 mi North 8.1 mph - 0.00 in   Clear
9:15 PM 53.6 °F 48.2 °F 82% 30.29 in 10.0 mi North 8.1 mph - 0.00 in   Clear
9:35 PM 51.8 °F 48.2 °F 88% 30.29 in 10.0 mi North 8.1 mph - 0.00 in   Clear
9:55 PM 53.6 °F 48.2 °F 82% 30.30 in 10.0 mi North 6.9 mph - 0.00 in   Clear
10:15 PM 53.6 °F 48.2 °F 82% 30.30 in 9.0 mi North 8.1 mph - 0.00 in   Mostly Cloudy
10:35 PM 53.6 °F 48.2 °F 82% 30.30 in 10.0 mi North 9.2 mph - 0.00 in   Overcast
10:55 PM 53.6 °F 48.2 °F 82% 30.30 in 10.0 mi North 10.4 mph - 0.00 in   Overcast
11:15 PM 53.6 °F 48.2 °F 82% 30.30 in 10.0 mi North 9.2 mph - 0.00 in   Overcast
11:35 PM 53.6 °F 48.2 °F 82% 30.29 in 10.0 mi North 10.4 mph - 0.00 in   Mostly Cloudy
11:55 PM 53.6 °F 48.2 °F 82% 30.29 in 10.0 mi NNE 9.2 mph - 0.00 in   Mostly Cloudy